SCP
0 0 0 0 0 0 0 2 4 1 2 4 3 2 1 1 1 1 1 0 1 1 0 0 0 0 -0 0 0 0 0 0 0 0 0 0 0 0 0 0 0 0 0
0 0 1 1 0 1 1 1 2 2 2 3 3 3 2 1 1 1 1 1 1 1 0 0 0 -0 -0 0 0 0 0 0 0 0 0 0 0 0 0 0 0 0 0
0 1 1 1 1 2 3 3 1 3 3 2 2 2 2 2 2 2 2 1 1 1 1 0 0 0 0 0 0 0 0 0 0 0 0 0 0 0 0 0 0 0 0
1 1 1 2 2 1 1 2 2 3 4 2 3 3 2 2 1 2 2 2 1 1 1 1 0 0 0 0 1 0 0 0 0 0 0 0 0 0 0 0 0 0 0
1 0 0 1 1 1 1 1 2 2 3 2 3 3 3 3 2 2 1 2 1 1 1 1 1 0 0 0 1 1 0 0 0 0 0 0 0 0 0 0 0 0 0
0 0 0 0 0 0 0 0 0 0 2 2 2 2 2 3 3 2 3 1 1 1 1 0 1 1 1 1 1 1 1 1 0 0 0 0 0 0 0 0 0 0 0
0 0 0 0 0 0 0 0 0 0 0 1 1 2 1 1 1 2 2 3 2 2 1 1 1 1 1 1 2 1 1 1 1 0 0 0 0 0 0 0 0 0 0
0 0 0 0 0 0 0 0 0 0 0 0 0 1 2 1 1 1 1 1 2 2 1 1 1 1 1 1 2 3 2 1 1 0 0 0 0 0 0 0 0 0 0
0 0 0 0 -0 0 0 0 0 0 0 0 0 0 1 1 1 1 1 1 1 1 1 1 1 2 2 2 2 2 1 1 1 1 0 0 0 0 0 0 0 0 0
0 0 0 0 0 0 0 0 0 0 0 0 0 0 0 0 1 1 0 1 0 0 1 2 2 3 3 3 2 2 2 1 1 1 0 0 0 0 0 0 0 0 0
0 0 0 0 0 0 0 0 0 0 0 0 0 0 0 0 0 0 0 1 0 0 1 1 2 3 3 2 2 1 1 1 1 1 1 0 1 0 0 0 0 0 0
0 0 0 0 0 0 0 0 0 0 0 0 0 0 0 0 0 0 0 0 1 0 0 1 0 1 2 1 2 1 1 1 0 0 0 0 0 0 0 0 0 0 0
-0 0 0 0 0 0 0 0 0 0 0 0 0 0 0 0 0 0 0 0 0 0 0 0 1 1 1 1 1 1 1 0 0 0 0 0 0 0 0 0 0 0 0
-0 0 0 0 0 0 0 0 0 0 0 0 0 0 0 0 0 0 0 0 0 0 1 0 1 1 1 1 1 1 1 0 0 0 0 0 0 0 0 0 0 0 0
0 0 0 0 0 0 0 0 0 0 0 0 0 0 0 0 0 0 0 0 0 0 0 0 1 1 1 1 0 0 0 0 0 0 0 0 0 0 0 0 0 0 0
0 0 0 0 0 0 0 0 0 0 0 0 0 0 0 0 0 0 0 0 0 0 0 0 0 0 0 1 0 0 0 0 0 0 0 0 0 0 0 0 0 0 0
0 0 0 0 0 0 0 0 0 0 0 0 0 0 0 0 0 0 0 0 0 0 0 0 0 0 0 0 0 0 0 0 0 0 0 0 0 0 0 0 0 0 0
0 0 0 0 0 0 0 0 0 0 0 0 0 0 0 0 0 0 0 0 0 0 0 0 0 0 0 0 0 0 0 0 0 0 0 0 0 0 0 0 0 0 0
0 0 0 0 0 0 0 0 0 0 0 0 0 0 0 0 0 0 0 0 0 0 0 0 0 0 0 0 0 0 0 -0 -0 0 0 0 0 0 0 0 0 0 0
0 0 0 0 0 0 0 0 0 0 0 0 0 0 0 0 0 0 0 0 0 0 0 0 0 0 0 0 0 0 0 0 0 0 0 0 0 0 0 0 0 0 0
0 0 0 0 0 0 0 0 0 0 0 0 0 0 0 0 0 0 0 0 0 0 0 0 0 0 0 0 0 0 0 0 0 0 0 0 0 0 0 0 0 0 0
0 0 0 0 0 0 0 0 0 0 0 0 0 0 0 0 0 0 0 0 0 0 0 0 0 0 0 0 0 0 0 0 0 0 0 0 0 0 0 0 0 0 0
0 0 0 0 0 0 0 0 0 0 0 0 0 0 0 0 0 0 0 0 0 0 0 0 0 0 0 0 0 0 0 0 0 0 0 0 0 0 0 0 0 0 0
0 0 0 0 0 0 0 0 0 0 0 0 0 0 0 0 0 0 0 0 0 0 0 0 0 0 0 0 0 0 0 0 0 0 0 0 0 0 0 0 0 0 0
0 0 0 0 0 0 0 0 0 0 0 0 0 0 0 0 0 0 0 0 0 0 0 0 0 0 0 0 0 0 0 0 0 0 0 0 0 0 0 0 0 0 0
0 0 0 0 0 0 0 0 0 0 0 0 0 0 0 0 0 0 0 0 0 0 0 0 0 0 0 0 0 0 0 0 -0 0 0 0 0 0 0 0 0 0 0
Wind_Speed_500mb
42 43 39 31 19 26 33 28 40 37 37 41 46 42 57 53 53 50 50 45 46 45 41 36 41 52 50 50 38 37 34 29 21 22 14 20 17 20 20 23 21 18 21
50 44 35 20 20 13 19 30 27 37 38 31 36 36 30 38 54 55 55 53 52 51 48 40 39 47 44 43 45 39 42 34 30 30 25 20 26 31 26 26 28 16 22
49 47 41 37 28 23 19 22 22 22 33 30 22 25 27 31 37 41 50 56 57 54 59 53 39 49 53 52 47 52 46 38 33 29 26 17 20 21 16 25 25 27 26
63 59 50 38 29 19 13 10 17 28 24 29 37 36 40 38 34 40 42 57 52 58 67 63 54 44 53 53 54 51 47 44 42 38 33 33 26 14 13 24 27 27 33
67 59 52 45 33 21 4 8 10 21 20 25 18 38 32 36 35 41 48 43 48 50 48 61 66 60 59 54 57 51 48 46 51 45 43 40 32 38 42 30 32 28 36
66 58 50 50 49 27 16 11 10 18 23 19 19 24 32 27 35 36 32 29 42 40 45 40 46 58 56 63 62 64 56 53 51 54 49 50 46 42 35 37 35 31 28
64 65 57 46 43 40 27 17 12 13 9 8 13 21 29 33 38 34 42 22 29 38 41 44 42 45 57 62 68 63 60 56 54 56 60 60 52 44 35 33 33 33 31
65 52 49 46 40 31 28 34 36 31 13 3 3 9 2 21 30 30 42 44 34 36 31 43 48 45 41 52 67 69 66 62 58 59 59 57 60 54 49 40 39 35 31
40 46 55 46 44 37 29 30 35 36 32 32 31 15 16 22 24 22 34 46 55 53 48 42 41 44 41 39 51 75 74 67 66 66 65 66 63 58 58 52 43 32 34
36 21 51 51 50 35 23 25 38 33 33 31 31 29 26 25 23 22 25 27 39 47 46 49 41 43 46 45 40 48 57 66 71 70 70 68 69 62 61 60 47 40 35
35 40 47 46 42 36 34 17 25 26 19 15 23 28 32 29 25 23 25 26 29 34 41 41 40 43 46 45 44 51 49 59 65 66 64 62 62 62 58 58 60 45 39
17 30 44 32 28 26 24 22 23 25 19 20 16 15 22 32 33 28 25 23 26 27 26 37 42 41 41 42 41 43 46 54 58 53 47 47 55 59 55 53 50 52 45
26 14 12 11 18 22 21 17 18 24 18 24 21 21 19 20 28 38 30 27 25 25 27 23 34 40 43 30 26 33 42 44 48 46 45 47 41 49 47 50 43 43 45
31 17 22 22 24 19 21 21 22 27 25 28 23 26 26 27 26 30 38 38 24 21 22 20 21 31 39 38 41 41 41 44 41 41 39 38 40 40 46 46 42 49 44
15 27 22 23 19 15 18 25 32 38 34 37 35 29 24 30 34 28 39 42 32 24 22 21 17 17 27 39 39 45 50 46 38 46 42 45 46 50 44 49 49 48 55
33 27 24 22 23 26 27 30 30 36 44 46 38 35 33 31 29 34 36 41 33 37 30 17 20 17 16 22 24 34 42 40 42 45 46 46 34 44 50 51 51 53 51
27 23 22 18 16 21 26 30 36 36 32 34 41 39 42 40 35 33 36 33 35 40 38 30 18 14 15 17 22 21 20 28 43 49 42 40 37 38 46 53 61 62 59
24 21 18 16 22 30 42 47 44 51 54 49 36 33 30 37 45 46 36 29 42 41 40 37 29 20 20 21 22 23 28 29 29 31 39 54 61 61 58 61 63 64 71
20 22 27 29 37 42 35 33 39 47 51 47 51 47 43 39 36 40 48 42 28 35 41 40 34 33 29 32 29 30 37 39 38 40 41 40 46 58 61 61 63 68 73
18 23 35 34 28 38 34 40 44 39 38 35 33 38 43 49 47 43 41 44 44 44 39 45 40 40 41 40 36 34 33 37 40 42 45 56 54 47 49 56 58 58 57
27 27 34 37 32 37 40 42 42 41 48 48 40 42 37 39 48 57 58 51 46 39 48 51 53 52 48 46 47 39 42 38 43 49 45 48 51 49 47 46 52 60 56
29 34 38 33 45 46 44 46 45 48 48 49 48 49 51 52 52 47 45 49 61 60 50 53 57 59 59 54 53 45 45 46 40 41 36 50 55 48 49 51 50 51 56
34 33 37 48 47 48 43 45 51 51 51 47 45 51 51 56 47 46 48 50 49 50 61 62 59 56 53 58 56 46 49 46 43 42 46 45 46 52 51 55 52 44 45
44 41 35 39 37 43 45 47 51 52 51 49 52 48 49 46 43 43 43 48 51 55 58 55 60 60 54 52 47 49 44 42 42 39 39 46 47 42 48 47 52 55 55
40 31 33 38 41 47 47 46 49 37 41 40 40 37 35 41 47 49 46 50 47 52 56 56 54 54 57 46 28 41 32 42 42 38 37 41 40 36 31 37 40 39 43
44 37 33 38 43 45 47 46 35 30 30 29 32 39 42 47 48 44 47 49 54 56 48 48 50 49 55 57 51 42 55 36 37 33 34 35 38 34 31 34 37 35 43
Wind_Direction_500mb
113 109 96 93 131 162 182 199 200 208 208 218 219 219 223 221 220 222 231 240 246 250 247 251 228 212 220 224 228 231 233 241 221 222 204 229 267 291 288 269 260 264 262
120 116 114 111 77 113 144 174 198 221 235 221 228 229 240 241 230 230 233 237 239 242 248 254 237 216 223 226 230 234 235 236 234 227 217 224 244 256 266 260 252 257 247
129 123 110 101 98 90 101 158 187 199 223 234 216 226 243 233 237 236 238 236 241 244 252 249 237 227 227 228 230 237 241 237 221 220 215 207 225 212 243 226 236 235 245
115 108 107 108 102 99 104 135 193 199 201 220 227 228 232 235 234 239 254 248 250 256 252 252 245 244 232 229 231 237 244 238 219 214 224 230 236 212 223 213 221 237 238
121 109 102 91 100 114 138 106 153 179 185 211 219 229 236 237 242 248 250 272 263 250 239 245 250 242 229 230 234 237 236 236 226 226 225 231 241 246 247 244 234 246 246
115 115 113 101 84 82 71 132 155 147 176 202 206 224 238 238 233 233 253 279 266 264 275 271 244 238 232 229 233 241 240 237 232 229 229 234 232 237 233 246 253 256 257
120 115 108 102 96 79 68 69 127 124 130 175 210 229 239 246 258 251 247 253 272 262 259 270 271 264 254 239 233 236 244 236 236 231 233 237 240 242 246 253 262 268 268
103 111 107 99 88 98 77 69 65 70 90 99 243 259 285 256 255 267 256 259 252 251 271 261 264 265 271 244 232 234 241 245 241 243 243 241 244 242 241 246 256 268 270
99 92 111 112 107 102 92 72 59 55 53 60 58 33 347 329 321 295 262 261 262 258 258 266 266 259 259 264 245 234 238 243 247 247 251 252 248 246 246 248 253 260 266
68 108 86 110 96 89 86 86 61 62 62 41 27 23 22 28 18 347 313 296 271 269 259 256 264 262 248 257 253 240 242 245 247 251 254 254 254 252 251 247 245 248 254
55 24 54 66 72 69 53 53 43 28 26 43 27 16 6 354 350 357 354 340 315 289 272 262 245 247 248 246 246 248 244 253 250 253 259 259 262 263 258 255 245 244 249
41 6 39 54 60 56 37 22 19 12 18 355 326 336 357 346 339 333 329 331 331 329 297 264 255 250 249 256 256 254 257 249 251 254 257 259 258 262 264 255 249 239 244
218 176 248 33 51 34 18 3 344 356 351 346 334 314 299 322 333 326 332 317 315 320 328 312 269 258 248 241 248 266 268 267 271 266 268 269 266 257 259 249 239 232 238
229 169 111 85 66 36 16 359 328 324 324 329 327 314 311 320 312 311 316 326 307 307 313 324 307 266 244 238 262 267 258 264 268 263 264 265 256 254 248 250 243 230 231
158 103 76 53 32 356 343 331 326 320 321 310 303 303 311 315 309 312 303 312 309 306 292 304 304 297 276 262 260 260 254 259 254 263 264 268 252 248 243 242 242 243 237
83 66 49 28 3 345 335 328 325 318 312 311 311 300 296 297 304 308 315 292 301 303 300 291 285 299 308 306 292 279 259 256 252 257 264 274 264 248 240 240 241 243 245
56 43 28 8 339 318 308 303 305 302 306 318 310 308 306 291 295 303 310 291 288 286 296 296 303 318 314 312 303 294 277 265 259 255 255 260 256 249 250 250 245 246 245
50 41 12 342 314 305 301 305 301 296 293 289 291 291 306 309 296 299 302 321 294 274 279 285 297 294 308 298 289 295 298 296 289 285 280 266 257 255 254 265 264 256 252
2 349 333 322 321 319 320 311 309 310 304 291 290 284 287 303 305 311 303 298 303 295 278 277 278 276 277 283 290 287 288 297 301 298 288 283 282 270 265 264 262 260 251
343 328 327 328 326 313 322 316 315 316 330 331 333 321 298 289 292 291 300 303 294 293 285 279 274 274 276 281 290 289 290 291 282 300 301 289 290 283 272 266 263 261 256
329 315 316 317 311 311 316 321 306 303 306 306 309 310 312 315 299 290 285 286 293 292 286 278 274 277 284 281 281 278 281 291 293 281 289 297 286 282 273 262 261 262 261
320 316 315 300 312 316 314 306 303 304 306 307 306 308 311 309 309 303 297 293 280 286 290 284 280 271 268 273 275 267 271 288 296 305 297 284 290 276 277 266 264 261 259
315 307 295 301 303 307 308 304 304 305 297 297 294 302 302 307 311 306 303 299 301 298 293 283 280 284 274 274 275 254 260 278 293 296 298 298 286 287 281 274 267 259 248
305 304 303 307 311 317 309 302 301 301 298 292 294 298 304 309 316 316 309 304 302 298 296 291 279 274 279 278 260 254 263 283 296 303 300 296 287 275 278 279 261 257 250
303 312 311 307 306 300 307 305 310 307 299 299 301 304 311 308 304 308 302 306 301 302 295 286 284 281 276 267 260 313 289 287 297 305 308 296 285 274 269 270 261 259 247
306 307 309 305 307 301 304 310 311 300 307 308 310 312 309 312 314 316 309 303 307 308 298 290 282 272 273 268 273 277 296 292 299 306 310 310 290 281 267 264 274 260 257
Wind_Speed_850mb
42 43 39 31 19 26 33 28 40 37 37 41 46 42 57 53 53 50 50 45 46 45 41 36 41 52 50 50 38 37 34 29 21 22 14 20 17 20 20 23 21 18 21
50 44 35 20 20 13 19 30 27 37 38 31 36 36 30 38 54 55 55 53 52 51 48 40 39 47 44 43 45 39 42 34 30 30 25 20 26 31 26 26 28 16 22
49 47 41 37 28 23 19 22 22 22 33 30 22 25 27 31 37 41 50 56 57 54 59 53 39 49 53 52 47 52 46 38 33 29 26 17 20 21 16 25 25 27 26
63 59 50 38 29 19 13 10 17 28 24 29 37 36 40 38 34 40 42 57 52 58 67 63 54 44 53 53 54 51 47 44 42 38 33 33 26 14 13 24 27 27 33
67 59 52 45 33 21 4 8 10 21 20 25 18 38 32 36 35 41 48 43 48 50 48 61 66 60 59 54 57 51 48 46 51 45 43 40 32 38 42 30 32 28 36
66 58 50 50 49 27 16 11 10 18 23 19 19 24 32 27 35 36 32 29 42 40 45 40 46 58 56 63 62 64 56 53 51 54 49 50 46 42 35 37 35 31 28
64 65 57 46 43 40 27 17 12 13 9 8 13 21 29 33 38 34 42 22 29 38 41 44 42 45 57 62 68 63 60 56 54 56 60 60 52 44 35 33 33 33 31
65 52 49 46 40 31 28 34 36 31 13 3 3 9 2 21 30 30 42 44 34 36 31 43 48 45 41 52 67 69 66 62 58 59 59 57 60 54 49 40 39 35 31
40 46 55 46 44 37 29 30 35 36 32 32 31 15 16 22 24 22 34 46 55 53 48 42 41 44 41 39 51 75 74 67 66 66 65 66 63 58 58 52 43 32 34
36 21 51 51 50 35 23 25 38 33 33 31 31 29 26 25 23 22 25 27 39 47 46 49 41 43 46 45 40 48 57 66 71 70 70 68 69 62 61 60 47 40 35
35 40 47 46 42 36 34 17 25 26 19 15 23 28 32 29 25 23 25 26 29 34 41 41 40 43 46 45 44 51 49 59 65 66 64 62 62 62 58 58 60 45 39
17 30 44 32 28 26 24 22 23 25 19 20 16 15 22 32 33 28 25 23 26 27 26 37 42 41 41 42 41 43 46 54 58 53 47 47 55 59 55 53 50 52 45
26 14 12 11 18 22 21 17 18 24 18 24 21 21 19 20 28 38 30 27 25 25 27 23 34 40 43 30 26 33 42 44 48 46 45 47 41 49 47 50 43 43 45
31 17 22 22 24 19 21 21 22 27 25 28 23 26 26 27 26 30 38 38 24 21 22 20 21 31 39 38 41 41 41 44 41 41 39 38 40 40 46 46 42 49 44
15 27 22 23 19 15 18 25 32 38 34 37 35 29 24 30 34 28 39 42 32 24 22 21 17 17 27 39 39 45 50 46 38 46 42 45 46 50 44 49 49 48 55
33 27 24 22 23 26 27 30 30 36 44 46 38 35 33 31 29 34 36 41 33 37 30 17 20 17 16 22 24 34 42 40 42 45 46 46 34 44 50 51 51 53 51
27 23 22 18 16 21 26 30 36 36 32 34 41 39 42 40 35 33 36 33 35 40 38 30 18 14 15 17 22 21 20 28 43 49 42 40 37 38 46 53 61 62 59
24 21 18 16 22 30 42 47 44 51 54 49 36 33 30 37 45 46 36 29 42 41 40 37 29 20 20 21 22 23 28 29 29 31 39 54 61 61 58 61 63 64 71
20 22 27 29 37 42 35 33 39 47 51 47 51 47 43 39 36 40 48 42 28 35 41 40 34 33 29 32 29 30 37 39 38 40 41 40 46 58 61 61 63 68 73
18 23 35 34 28 38 34 40 44 39 38 35 33 38 43 49 47 43 41 44 44 44 39 45 40 40 41 40 36 34 33 37 40 42 45 56 54 47 49 56 58 58 57
27 27 34 37 32 37 40 42 42 41 48 48 40 42 37 39 48 57 58 51 46 39 48 51 53 52 48 46 47 39 42 38 43 49 45 48 51 49 47 46 52 60 56
29 34 38 33 45 46 44 46 45 48 48 49 48 49 51 52 52 47 45 49 61 60 50 53 57 59 59 54 53 45 45 46 40 41 36 50 55 48 49 51 50 51 56
34 33 37 48 47 48 43 45 51 51 51 47 45 51 51 56 47 46 48 50 49 50 61 62 59 56 53 58 56 46 49 46 43 42 46 45 46 52 51 55 52 44 45
44 41 35 39 37 43 45 47 51 52 51 49 52 48 49 46 43 43 43 48 51 55 58 55 60 60 54 52 47 49 44 42 42 39 39 46 47 42 48 47 52 55 55
40 31 33 38 41 47 47 46 49 37 41 40 40 37 35 41 47 49 46 50 47 52 56 56 54 54 57 46 28 41 32 42 42 38 37 41 40 36 31 37 40 39 43
44 37 33 38 43 45 47 46 35 30 30 29 32 39 42 47 48 44 47 49 54 56 48 48 50 49 55 57 51 42 55 36 37 33 34 35 38 34 31 34 37 35 43
Wind_Direction_850mb
113 109 96 93 131 162 182 199 200 208 208 218 219 219 223 221 220 222 231 240 246 250 247 251 228 212 220 224 228 231 233 241 221 222 204 229 267 291 288 269 260 264 262
120 116 114 111 77 113 144 174 198 221 235 221 228 229 240 241 230 230 233 237 239 242 248 254 237 216 223 226 230 234 235 236 234 227 217 224 244 256 266 260 252 257 247
129 123 110 101 98 90 101 158 187 199 223 234 216 226 243 233 237 236 238 236 241 244 252 249 237 227 227 228 230 237 241 237 221 220 215 207 225 212 243 226 236 235 245
115 108 107 108 102 99 104 135 193 199 201 220 227 228 232 235 234 239 254 248 250 256 252 252 245 244 232 229 231 237 244 238 219 214 224 230 236 212 223 213 221 237 238
121 109 102 91 100 114 138 106 153 179 185 211 219 229 236 237 242 248 250 272 263 250 239 245 250 242 229 230 234 237 236 236 226 226 225 231 241 246 247 244 234 246 246
115 115 113 101 84 82 71 132 155 147 176 202 206 224 238 238 233 233 253 279 266 264 275 271 244 238 232 229 233 241 240 237 232 229 229 234 232 237 233 246 253 256 257
120 115 108 102 96 79 68 69 127 124 130 175 210 229 239 246 258 251 247 253 272 262 259 270 271 264 254 239 233 236 244 236 236 231 233 237 240 242 246 253 262 268 268
103 111 107 99 88 98 77 69 65 70 90 99 243 259 285 256 255 267 256 259 252 251 271 261 264 265 271 244 232 234 241 245 241 243 243 241 244 242 241 246 256 268 270
99 92 111 112 107 102 92 72 59 55 53 60 58 33 347 329 321 295 262 261 262 258 258 266 266 259 259 264 245 234 238 243 247 247 251 252 248 246 246 248 253 260 266
68 108 86 110 96 89 86 86 61 62 62 41 27 23 22 28 18 347 313 296 271 269 259 256 264 262 248 257 253 240 242 245 247 251 254 254 254 252 251 247 245 248 254
55 24 54 66 72 69 53 53 43 28 26 43 27 16 6 354 350 357 354 340 315 289 272 262 245 247 248 246 246 248 244 253 250 253 259 259 262 263 258 255 245 244 249
41 6 39 54 60 56 37 22 19 12 18 355 326 336 357 346 339 333 329 331 331 329 297 264 255 250 249 256 256 254 257 249 251 254 257 259 258 262 264 255 249 239 244
218 176 248 33 51 34 18 3 344 356 351 346 334 314 299 322 333 326 332 317 315 320 328 312 269 258 248 241 248 266 268 267 271 266 268 269 266 257 259 249 239 232 238
229 169 111 85 66 36 16 359 328 324 324 329 327 314 311 320 312 311 316 326 307 307 313 324 307 266 244 238 262 267 258 264 268 263 264 265 256 254 248 250 243 230 231
158 103 76 53 32 356 343 331 326 320 321 310 303 303 311 315 309 312 303 312 309 306 292 304 304 297 276 262 260 260 254 259 254 263 264 268 252 248 243 242 242 243 237
83 66 49 28 3 345 335 328 325 318 312 311 311 300 296 297 304 308 315 292 301 303 300 291 285 299 308 306 292 279 259 256 252 257 264 274 264 248 240 240 241 243 245
56 43 28 8 339 318 308 303 305 302 306 318 310 308 306 291 295 303 310 291 288 286 296 296 303 318 314 312 303 294 277 265 259 255 255 260 256 249 250 250 245 246 245
50 41 12 342 314 305 301 305 301 296 293 289 291 291 306 309 296 299 302 321 294 274 279 285 297 294 308 298 289 295 298 296 289 285 280 266 257 255 254 265 264 256 252
2 349 333 322 321 319 320 311 309 310 304 291 290 284 287 303 305 311 303 298 303 295 278 277 278 276 277 283 290 287 288 297 301 298 288 283 282 270 265 264 262 260 251
343 328 327 328 326 313 322 316 315 316 330 331 333 321 298 289 292 291 300 303 294 293 285 279 274 274 276 281 290 289 290 291 282 300 301 289 290 283 272 266 263 261 256
329 315 316 317 311 311 316 321 306 303 306 306 309 310 312 315 299 290 285 286 293 292 286 278 274 277 284 281 281 278 281 291 293 281 289 297 286 282 273 262 261 262 261
320 316 315 300 312 316 314 306 303 304 306 307 306 308 311 309 309 303 297 293 280 286 290 284 280 271 268 273 275 267 271 288 296 305 297 284 290 276 277 266 264 261 259
315 307 295 301 303 307 308 304 304 305 297 297 294 302 302 307 311 306 303 299 301 298 293 283 280 284 274 274 275 254 260 278 293 296 298 298 286 287 281 274 267 259 248
305 304 303 307 311 317 309 302 301 301 298 292 294 298 304 309 316 316 309 304 302 298 296 291 279 274 279 278 260 254 263 283 296 303 300 296 287 275 278 279 261 257 250
303 312 311 307 306 300 307 305 310 307 299 299 301 304 311 308 304 308 302 306 301 302 295 286 284 281 276 267 260 313 289 287 297 305 308 296 285 274 269 270 261 259 247
306 307 309 305 307 301 304 310 311 300 307 308 310 312 309 312 314 316 309 303 307 308 298 290 282 272 273 268 273 277 296 292 299 306 310 310 290 281 267 264 274 260 257